Vertical_Velocity
0 1 1 2 2 1 1 0 1 1 2 2 0 -1 -1 1 1 1 1 3 4 4 4 2 2 1 0 0 0 0 0 1 2 2 2 2 1 -0 -1 -1 -1 -1 -1 -1 -1 -1 -0 -0 0 0 0 0 0 0 -0 -0 -0 -1 -2 -2 -2 -2 -2 -2 -4 -5 -6 -6 -6
-2 -1 0 1 0 0 -0 -0 -0 0 1 0 -0 -1 -1 0 0 0 1 2 4 4 4 2 1 1 1 0 -0 0 1 2 2 2 2 2 1 -0 -1 -1 -1 -1 -1 -1 -0 -0 0 0 0 1 0 0 1 1 0 -1 -0 -0 -1 -2 -3 -4 -4 -4 -5 -6 -6 -6 -7
-3 -2 -0 1 1 -0 -1 -1 -0 0 1 -0 -1 -2 -1 -1 -0 0 0 1 3 4 4 3 2 1 1 1 0 1 2 2 2 2 2 1 0 -0 -0 -0 -0 -0 -0 -0 -0 -0 -0 0 1 1 1 1 1 1 0 -1 -1 -0 -1 -3 -4 -4 -5 -5 -6 -6 -6 -6 -6
-3 -1 1 2 1 0 -1 -1 0 1 1 0 -0 -1 -1 -1 -1 -0 0 1 3 4 4 3 2 1 1 1 1 2 2 2 2 2 1 -0 -0 -0 -0 0 1 1 0 -0 -0 -0 -0 0 1 1 1 1 1 0 -1 -2 -1 -1 -2 -4 -4 -5 -5 -6 -6 -6 -6 -5 -5
-0 1 3 4 2 0 -1 -2 -1 -0 0 1 1 0 -1 -1 -1 -0 -0 1 3 3 3 3 2 2 1 1 2 2 2 2 1 1 0 -0 -1 -0 -0 0 0 -0 -1 -1 -1 -1 -1 -0 0 0 1 0 0 -1 -1 -2 -2 -2 -3 -4 -4 -4 -5 -5 -6 -6 -5 -4 -4
2 3 4 4 2 0 -1 -2 -1 -0 -0 1 2 1 -0 -1 -1 -0 0 1 2 3 3 4 3 2 2 2 2 2 1 1 1 1 0 0 -0 -0 -0 -0 -1 -1 -2 -2 -2 -1 -1 -0 -0 -1 -1 -1 -1 -2 -2 -2 -2 -2 -3 -4 -5 -5 -5 -4 -5 -5 -4 -3 -3
2 2 3 2 1 -0 -1 -1 -0 0 1 1 2 1 0 -0 -0 0 1 1 3 4 4 4 3 2 2 2 1 1 1 1 1 1 1 1 0 -0 -0 -1 -2 -2 -2 -2 -2 -2 -1 -1 -1 -2 -2 -2 -1 -2 -2 -2 -2 -2 -2 -4 -5 -5 -4 -4 -4 -4 -3 -2 -2
0 1 2 2 1 -0 -1 -1 1 1 1 1 1 1 1 0 1 1 1 2 4 4 3 4 3 3 2 2 1 1 1 0 0 1 1 1 1 -0 -1 -1 -2 -2 -3 -3 -2 -2 -2 -2 -2 -2 -2 -2 -1 -2 -2 -2 -2 -1 -2 -3 -4 -4 -4 -4 -4 -3 -2 -1 -1
-1 0 1 2 1 -0 -1 -1 1 1 2 1 1 1 1 1 1 2 2 3 3 3 3 4 3 2 2 2 1 1 1 1 1 0 0 0 0 -0 -1 -2 -2 -2 -3 -3 -3 -2 -3 -3 -2 -2 -2 -1 -2 -2 -3 -2 -2 -2 -2 -2 -3 -3 -3 -3 -2 -2 -1 -1 -0
-1 0 2 2 1 -0 -1 -1 0 1 2 1 1 1 2 2 2 2 2 2 2 3 3 2 2 2 2 1 1 1 1 1 0 -0 -1 -1 -1 -1 -2 -2 -2 -3 -4 -4 -4 -3 -3 -2 -2 -2 -2 -2 -2 -3 -3 -3 -2 -2 -2 -2 -2 -2 -2 -2 -2 -1 -1 -0 0
-0 1 2 2 0 -1 -1 -0 -0 1 1 2 1 2 2 3 3 3 2 2 3 2 2 1 1 1 1 1 1 1 1 1 0 -0 -1 -2 -2 -2 -2 -2 -2 -3 -4 -5 -4 -4 -3 -3 -3 -3 -3 -3 -3 -3 -3 -3 -2 -2 -2 -2 -1 -1 -1 -2 -1 -1 -1 -0 1
1 1 2 2 1 0 0 0 -0 1 1 2 2 2 3 3 3 3 2 2 2 1 -0 -0 1 1 1 1 1 1 1 0 -0 -1 -1 -2 -2 -2 -2 -2 -2 -3 -4 -4 -4 -4 -3 -3 -3 -3 -3 -4 -4 -3 -3 -3 -2 -2 -2 -2 -1 -0 0 -1 -1 -1 -1 0 1
2 2 2 2 2 2 2 1 1 1 2 3 3 3 4 4 3 3 3 2 1 0 -0 -0 1 1 1 1 1 1 0 -0 -1 -1 -1 -2 -2 -2 -2 -2 -2 -3 -3 -3 -3 -3 -3 -3 -3 -3 -3 -4 -4 -4 -3 -3 -2 -2 -1 -1 -1 0 1 0 -0 -0 -0 0 1
2 2 2 2 2 3 4 3 2 2 3 4 4 4 4 4 3 3 2 2 1 1 1 0 1 1 1 1 1 0 -0 -1 -1 -1 -1 -1 -1 -1 -1 -2 -2 -2 -2 -2 -2 -2 -3 -3 -3 -3 -3 -3 -4 -4 -4 -3 -2 -1 -1 -1 0 1 1 1 0 0 0 1 1
1 1 2 2 3 4 4 4 3 3 4 4 4 4 4 3 2 2 2 2 1 1 1 1 1 1 1 1 1 0 -1 -1 -1 -1 -1 -1 -1 -1 -1 -1 -1 -1 -1 -2 -2 -2 -2 -2 -2 -2 -2 -2 -2 -3 -3 -2 -2 -1 -1 -0 1 1 1 1 1 0 1 1 1
1 1 2 2 2 3 4 5 4 4 4 4 4 4 4 2 2 2 2 2 1 1 1 2 1 1 1 1 1 1 -0 -0 -0 -0 -0 -0 -1 -1 -1 -1 -1 -1 -1 -2 -2 -3 -3 -2 -2 -1 -1 -1 -1 -2 -2 -2 -1 -1 -0 0 1 1 1 1 0 0 -0 -0 0
1 2 2 2 2 3 4 4 4 4 4 4 4 3 3 2 1 1 2 2 1 1 1 1 1 1 1 1 1 1 1 0 -0 -0 -0 -0 -0 -1 -1 -1 -1 -1 -1 -2 -2 -2 -2 -2 -1 -1 -0 -0 -0 -1 -1 -1 -1 -1 -1 -0 0 1 1 0 -0 -0 -1 -1 -1
2 2 2 2 2 2 3 4 4 5 5 4 4 3 2 1 1 1 1 1 2 1 1 1 1 1 2 1 1 1 1 1 0 -0 -0 0 -0 -0 -1 -1 -1 -1 -1 -1 -2 -2 -2 -2 -1 -1 0 1 1 0 0 -0 -0 -1 -1 -1 -0 -0 -0 -0 -0 -1 -1 -1 -1
2 2 2 1 1 2 3 4 5 5 5 5 4 3 2 2 2 2 2 2 2 2 1 1 1 1 1 1 1 1 1 1 0 0 0 0 0 -0 -1 -1 -1 -0 -1 -1 -1 -1 -1 -1 -1 0 1 1 1 1 0 -0 -1 -1 -1 -1 -1 -1 -1 -1 -1 -1 -1 -1 -1
3 3 2 1 1 2 3 4 5 5 5 5 4 3 3 2 2 3 3 2 2 2 2 1 1 1 1 1 1 1 1 1 1 1 0 0 -0 -0 -1 -1 -0 -0 -0 -0 -0 -0 -1 -1 0 1 2 1 0 -0 -0 -1 -1 -1 -1 -1 -0 -0 -0 -0 -1 -1 -1 -1 -1
4 4 3 3 3 3 3 3 4 4 4 4 4 3 2 2 3 3 3 2 2 2 1 1 1 1 1 1 1 1 1 1 2 1 1 -0 -0 -0 -1 -0 -0 -0 -0 0 1 0 0 0 1 1 1 0 -0 -1 -1 -2 -2 -2 -1 -0 0 0 0 0 -0 -1 -1 -1 -1
6 7 7 6 5 3 2 2 4 4 4 3 2 2 2 2 2 3 3 2 2 1 1 0 1 1 1 1 1 1 1 1 2 1 1 0 -0 -0 -0 0 0 -0 -0 0 1 1 1 1 0 -0 -0 -0 -1 -1 -2 -3 -3 -2 -1 1 1 1 1 1 -0 -1 -1 -2 -1
10 11 10 7 4 2 2 2 4 4 4 3 2 1 1 1 2 2 2 2 1 0 -0 0 1 1 1 1 1 1 1 1 1 1 1 0 0 -0 -0 0 0 -0 -0 0 2 3 3 1 -1 -1 -1 -1 -0 -1 -2 -3 -3 -2 -0 1 1 2 1 1 0 -1 -1 -2 -2
14 11 8 4 2 2 2 3 3 4 4 3 2 1 1 1 2 2 3 2 1 -0 -0 -0 1 1 1 1 1 1 0 0 -0 -0 0 1 1 0 0 0 0 -0 -0 -0 2 3 3 2 -0 -2 -2 -1 -0 -1 -1 -2 -2 -1 -0 0 1 1 1 1 0 -0 -1 -2 -2
12 7 3 1 1 1 2 2 3 3 3 2 2 1 1 1 2 3 3 2 1 -0 -0 0 0 1 1 1 0 0 0 -0 -0 -0 -0 0 1 1 0 0 -0 -1 -1 0 2 4 4 2 0 -1 -2 -2 -1 -1 -1 -1 -1 -1 -1 -0 0 1 1 1 0 -0 -1 -2 -2
5 1 -1 -1 -1 0 1 2 2 2 2 2 1 1 1 1 2 3 3 2 0 -0 -0 0 0 0 0 0 0 0 -0 -0 -0 -0 0 1 0 0 0 0 -0 -1 -0 0 2 4 4 3 0 -1 -2 -2 -2 -1 -1 -1 -1 -1 -1 -1 -0 0 1 0 -0 -1 -1 -2 -2
-1 -2 -2 -2 -0 1 1 2 2 2 1 1 1 1 0 1 2 3 2 1 -0 -0 -0 1 0 0 -0 0 0 0 -0 -1 -0 0 1 1 0 0 0 0 -0 -0 -0 1 2 4 4 2 -0 -2 -2 -2 -2 -1 -1 -1 -2 -1 -1 -1 -0 0 1 1 -0 -1 -1 -2 -2
-1 -1 -0 0 1 2 2 3 3 2 2 1 1 0 0 1 2 2 2 1 -0 -0 0 1 0 0 0 1 0 -0 -1 -1 -0 0 1 1 1 1 1 0 -0 -0 0 1 3 3 3 1 -1 -2 -3 -3 -2 -2 -1 -1 -1 -1 -1 -0 -0 0 1 1 0 -0 -1 -1 -2
2 2 3 3 3 3 4 5 4 3 2 1 1 0 0 1 1 1 1 1 -0 -0 0 0 0 1 1 1 0 -0 -1 -1 -1 -0 0 1 2 1 1 0 -0 -0 0 2 3 3 2 1 -1 -2 -3 -3 -2 -2 -2 -1 -1 -1 -0 -0 0 1 1 1 1 0 -0 -1 -1
5 5 5 5 4 4 5 6 5 4 3 2 1 1 0 0 1 1 1 1 0 -0 -0 -0 1 1 1 0 0 0 -0 -1 -2 -1 0 1 1 1 1 1 -0 -0 0 2 3 3 2 0 -1 -3 -3 -3 -3 -2 -2 -1 -1 -0 0 0 1 1 1 1 1 1 0 -1 -1
6 6 6 6 5 5 6 6 5 5 4 3 2 1 0 0 1 1 1 1 -0 -1 -1 -0 1 1 -0 -1 0 1 0 -1 -2 -1 -0 1 1 1 0 0 0 -0 0 1 2 3 2 1 -0 -2 -4 -4 -3 -2 -2 -1 -1 -0 0 1 1 1 1 1 1 1 1 -0 -1
5 5 5 5 5 6 6 6 6 5 4 3 2 1 0 0 0 0 1 0 -0 -1 -1 -1 -0 -0 -1 -1 0 0 -0 -1 -2 -2 -1 -0 0 0 0 -0 -0 -0 -0 0 1 2 3 4 2 -1 -3 -4 -4 -3 -2 -1 -0 0 1 1 1 1 1 1 1 1 1 0 -0
3 3 3 4 4 4 4 5 5 4 3 2 1 -0 -1 -1 -0 0 1 0 -0 -1 -2 -2 -1 -1 -1 -1 0 0 0 -0 -1 -2 -2 -1 -0 0 0 -0 -1 -1 -0 -1 -1 0 2 5 5 2 -1 -4 -4 -4 -2 -1 -0 0 1 1 0 0 0 1 1 1 1 0 0
1 1 1 1 1 2 2 3 3 2 2 1 -0 -2 -2 -1 -0 0 1 0 -1 -2 -2 -3 -2 -2 -1 -1 0 1 1 -0 -1 -1 -2 -1 -0 0 0 -0 -1 -1 -1 -1 -2 -2 1 5 7 6 2 -3 -5 -5 -3 -1 -0 0 1 0 0 0 0 0 0 0 0 -0 0
1 1 0 -0 -0 0 0 1 1 1 1 1 -1 -2 -2 -2 -0 1 1 0 -1 -2 -3 -3 -2 -1 -1 -0 0 1 1 -0 -1 -2 -2 -1 -0 0 0 -1 -2 -2 -2 -2 -3 -3 -1 3 8 8 5 -1 -5 -6 -4 -2 -0 0 0 -0 -0 -0 -0 -0 0 -0 -0 -0 -0
1 1 1 1 0 0 0 0 0 1 1 1 -1 -2 -2 -2 -1 1 1 1 -1 -2 -3 -3 -2 -0 1 1 1 1 1 1 -0 -1 -2 -2 -0 -0 -0 -1 -2 -3 -3 -3 -4 -4 -2 1 6 8 6 1 -4 -5 -5 -2 -1 -0 -0 -0 -1 -1 -1 -0 -0 -0 -0 -0 -0
1 1 1 1 1 1 1 1 1 1 1 0 -1 -3 -3 -4 -2 -0 1 2 0 -2 -4 -4 -2 -0 1 1 1 1 1 1 1 -1 -2 -2 -1 -1 -1 -2 -2 -3 -3 -3 -4 -4 -3 -0 4 7 7 3 -2 -5 -5 -3 -1 -0 -0 -0 -1 -1 -1 -0 0 0 -0 -0 -0
2 2 2 2 2 1 1 1 1 1 1 -0 -2 -3 -4 -4 -3 -1 1 3 2 -1 -3 -4 -2 -1 -0 1 1 1 1 1 1 1 -1 -2 -2 -2 -1 -2 -3 -4 -4 -3 -3 -3 -3 -1 2 5 6 4 -2 -5 -5 -3 -1 0 0 -0 -1 -1 -1 -0 0 0 0 -0 -0
3 3 3 3 2 1 1 1 1 1 1 0 -1 -2 -3 -3 -2 -1 1 3 3 1 -1 -4 -3 -3 -1 -0 0 -0 -0 -0 1 1 0 -1 -2 -2 -2 -2 -3 -4 -4 -3 -2 -2 -2 -1 1 4 5 4 -0 -4 -5 -3 -1 0 1 -0 -1 -1 -1 -1 0 0 0 -0 -0
4 4 3 3 2 1 -0 -1 -1 -0 1 1 -0 -2 -3 -3 -2 -0 1 2 3 2 1 -2 -3 -4 -2 -1 -0 -1 -1 -2 -1 0 0 -1 -2 -3 -2 -2 -3 -4 -4 -2 -2 -1 -1 -1 0 2 4 5 1 -2 -4 -3 -1 0 1 0 -0 -1 -1 -2 -0 0 0 -0 -0
4 4 3 2 1 -0 -1 -1 -1 -0 1 2 1 -0 -2 -3 -2 -1 1 2 3 3 2 -0 -2 -3 -3 -1 -0 -0 -1 -3 -3 -2 -1 -1 -2 -2 -3 -3 -3 -4 -3 -2 -1 -0 -0 -0 -0 1 2 4 3 1 -1 -2 -0 0 1 0 0 -0 -1 -2 -2 -1 -0 -0 -0
Height
5608 5608 5608 5607 5606 5606 5605 5604 5604 5603 5603 5603 5602 5602 5601 5601 5600 5600 5600 5600 5601 5601 5602 5602 5603 5603 5604 5605 5606 5606 5607 5607 5608 5608 5609 5609 5609 5609 5609 5609 5610 5610 5610 5610 5610 5610 5609 5609 5609 5608 5608 5608 5607 5606 5606 5605 5605 5604 5604 5604 5604 5603 5603 5603 5603 5603 5603 5603 5603
5604 5603 5603 5603 5602 5601 5601 5600 5600 5599 5598 5598 5598 5598 5597 5596 5596 5596 5596 5596 5597 5597 5598 5598 5599 5600 5601 5601 5602 5603 5603 5604 5604 5605 5605 5606 5606 5606 5606 5606 5606 5607 5607 5607 5607 5606 5606 5606 5605 5605 5604 5604 5603 5603 5602 5602 5601 5601 5601 5601 5600 5600 5600 5600 5599 5599 5599 5599 5599
5599 5599 5598 5598 5598 5598 5597 5597 5596 5595 5594 5594 5593 5593 5593 5592 5592 5592 5592 5592 5593 5593 5594 5595 5595 5596 5597 5598 5599 5599 5600 5601 5601 5602 5602 5602 5603 5603 5603 5603 5603 5603 5603 5603 5603 5603 5602 5602 5602 5601 5600 5600 5599 5599 5598 5598 5598 5598 5598 5597 5597 5597 5596 5596 5596 5596 5596 5596 5596
5596 5595 5595 5595 5594 5594 5593 5593 5592 5591 5590 5590 5589 5589 5588 5588 5588 5588 5588 5588 5588 5589 5590 5591 5592 5593 5593 5594 5595 5596 5597 5597 5598 5598 5598 5599 5599 5599 5600 5600 5600 5600 5600 5600 5600 5599 5599 5598 5598 5597 5597 5596 5596 5595 5595 5595 5595 5594 5594 5594 5594 5593 5593 5593 5593 5593 5592 5592 5592
5592 5592 5592 5591 5591 5590 5589 5588 5588 5587 5586 5585 5585 5584 5584 5584 5584 5583 5584 5584 5585 5585 5586 5587 5588 5589 5590 5591 5592 5593 5593 5594 5594 5594 5595 5595 5596 5596 5596 5596 5597 5597 5597 5596 5596 5596 5595 5595 5594 5593 5593 5593 5592 5592 5591 5591 5591 5591 5591 5590 5590 5590 5590 5589 5589 5589 5589 5589 5588
5588 5588 5588 5587 5586 5585 5584 5583 5582 5582 5581 5581 5580 5580 5580 5580 5580 5580 5580 5580 5581 5582 5582 5583 5584 5585 5587 5588 5588 5589 5590 5590 5591 5591 5592 5592 5592 5593 5593 5593 5593 5593 5593 5593 5593 5592 5592 5591 5590 5590 5589 5589 5588 5588 5588 5588 5588 5588 5587 5587 5587 5587 5586 5586 5586 5586 5586 5585 5585
5584 5584 5583 5583 5582 5581 5579 5578 5578 5577 5577 5576 5576 5576 5576 5576 5576 5576 5576 5577 5577 5578 5578 5580 5581 5582 5583 5584 5585 5585 5586 5587 5587 5588 5588 5588 5589 5589 5590 5590 5590 5590 5590 5589 5589 5589 5588 5588 5587 5586 5586 5585 5585 5584 5584 5584 5584 5584 5584 5584 5583 5583 5583 5583 5583 5582 5582 5582 5582
5579 5579 5579 5578 5577 5576 5575 5574 5573 5573 5573 5572 5572 5572 5572 5572 5572 5572 5573 5573 5573 5574 5575 5576 5577 5578 5579 5580 5581 5582 5583 5583 5584 5584 5585 5585 5585 5586 5586 5586 5586 5586 5586 5586 5586 5585 5584 5584 5583 5583 5582 5582 5581 5581 5581 5581 5581 5581 5581 5581 5580 5580 5580 5579 5579 5579 5579 5578 5578
5575 5575 5574 5574 5573 5572 5571 5570 5569 5569 5568 5568 5568 5568 5568 5568 5568 5568 5569 5569 5570 5570 5571 5573 5573 5574 5576 5577 5578 5578 5579 5580 5580 5581 5581 5582 5582 5583 5583 5583 5583 5583 5583 5583 5582 5582 5581 5580 5580 5579 5579 5578 5578 5578 5578 5578 5578 5578 5578 5577 5577 5577 5576 5576 5576 5575 5575 5575 5575
5571 5571 5570 5570 5569 5568 5567 5566 5566 5565 5565 5564 5564 5564 5564 5564 5564 5565 5565 5566 5566 5567 5568 5569 5570 5571 5572 5573 5574 5575 5576 5576 5577 5577 5578 5578 5578 5579 5579 5580 5580 5580 5579 5579 5579 5578 5578 5577 5576 5576 5575 5575 5574 5574 5574 5574 5574 5574 5574 5574 5573 5573 5573 5573 5572 5572 5572 5571 5571
5567 5567 5567 5566 5565 5564 5563 5563 5562 5561 5561 5561 5560 5560 5560 5561 5561 5561 5562 5562 5563 5564 5564 5566 5567 5568 5568 5570 5570 5571 5572 5573 5573 5573 5574 5574 5575 5576 5576 5576 5576 5576 5576 5576 5575 5574 5574 5573 5573 5572 5572 5572 5571 5571 5571 5571 5571 5570 5570 5570 5570 5570 5569 5569 5569 5568 5568 5568 5568
5563 5563 5563 5562 5561 5561 5560 5559 5558 5558 5558 5557 5557 5557 5557 5557 5558 5558 5558 5559 5560 5560 5561 5562 5563 5564 5565 5566 5567 5568 5568 5569 5569 5570 5571 5571 5572 5572 5572 5573 5573 5573 5573 5572 5572 5571 5570 5570 5569 5569 5568 5568 5568 5567 5567 5567 5567 5567 5567 5567 5567 5566 5566 5566 5565 5565 5564 5564 5564
5560 5559 5559 5558 5558 5557 5557 5556 5556 5555 5555 5554 5554 5554 5554 5554 5554 5555 5555 5556 5557 5558 5558 5559 5560 5561 5562 5563 5563 5564 5565 5565 5566 5567 5567 5568 5568 5568 5568 5569 5569 5569 5569 5568 5568 5568 5567 5567 5566 5566 5565 5564 5564 5563 5563 5563 5563 5563 5563 5563 5563 5563 5563 5562 5562 5561 5561 5560 5560
5556 5556 5556 5555 5555 5554 5554 5553 5553 5552 5552 5551 5551 5551 5551 5551 5551 5552 5552 5553 5553 5554 5555 5556 5557 5558 5559 5559 5560 5561 5561 5562 5562 5563 5563 5564 5564 5565 5565 5565 5565 5565 5565 5565 5565 5564 5564 5563 5563 5562 5562 5561 5560 5560 5560 5559 5559 5560 5560 5560 5559 5559 5559 5559 5558 5558 5557 5557 5557
5553 5552 5552 5552 5552 5551 5551 5551 5550 5550 5549 5549 5548 5548 5548 5548 5548 5548 5549 5550 5551 5551 5552 5553 5554 5555 5556 5556 5557 5557 5558 5558 5559 5559 5560 5560 5561 5561 5561 5562 5562 5562 5562 5561 5561 5561 5560 5560 5559 5558 5558 5557 5557 5557 5556 5556 5556 5556 5556 5556 5556 5556 5555 5555 5554 5554 5553 5553 5553
5549 5549 5548 5548 5548 5548 5548 5548 5548 5547 5546 5546 5545 5545 5545 5545 5545 5546 5546 5547 5548 5548 5549 5550 5551 5551 5552 5553 5553 5554 5554 5555 5555 5556 5556 5557 5557 5558 5558 5558 5558 5558 5558 5558 5558 5557 5557 5556 5555 5555 5554 5554 5553 5553 5553 5552 5552 5552 5552 5552 5552 5552 5551 5551 5551 5550 5550 5549 5549
5545 5545 5545 5545 5545 5545 5545 5545 5544 5544 5543 5543 5543 5542 5542 5542 5543 5543 5543 5544 5545 5545 5546 5547 5547 5548 5548 5549 5550 5550 5551 5551 5552 5552 5553 5553 5553 5554 5554 5554 5554 5554 5554 5554 5554 5553 5553 5553 5552 5551 5551 5550 5550 5549 5549 5549 5548 5548 5548 5548 5548 5547 5547 5547 5547 5546 5546 5545 5545
5542 5542 5542 5542 5542 5542 5542 5542 5541 5541 5540 5540 5539 5539 5539 5539 5540 5540 5540 5541 5542 5542 5543 5543 5544 5544 5545 5546 5546 5547 5547 5548 5548 5549 5549 5550 5550 5550 5550 5550 5551 5551 5551 5550 5550 5550 5549 5549 5548 5548 5548 5547 5547 5546 5546 5545 5545 5544 5544 5544 5543 5543 5543 5543 5543 5542 5542 5542 5541
5538 5538 5538 5538 5538 5538 5538 5538 5538 5538 5537 5537 5536 5536 5536 5536 5537 5537 5538 5538 5538 5539 5539 5540 5540 5541 5542 5542 5543 5543 5544 5544 5544 5545 5546 5546 5546 5546 5546 5547 5547 5547 5547 5547 5546 5546 5546 5545 5545 5545 5544 5544 5543 5543 5542 5541 5541 5541 5540 5540 5540 5539 5539 5539 5539 5538 5538 5538 5538
5535 5535 5535 5535 5535 5535 5535 5535 5535 5534 5534 5534 5533 5533 5533 5533 5534 5534 5534 5535 5535 5535 5536 5536 5537 5538 5538 5538 5539 5540 5540 5541 5541 5542 5542 5542 5543 5543 5543 5543 5543 5543 5543 5543 5543 5543 5542 5542 5542 5541 5541 5540 5539 5539 5538 5538 5537 5537 5536 5536 5536 5536 5535 5535 5535 5535 5535 5535 5534
5532 5531 5531 5532 5532 5532 5532 5532 5532 5531 5531 5531 5530 5530 5531 5531 5531 5531 5532 5532 5532 5532 5532 5533 5533 5534 5535 5535 5536 5536 5537 5537 5538 5538 5538 5538 5539 5539 5539 5540 5540 5540 5539 5539 5539 5539 5539 5539 5538 5538 5537 5536 5535 5535 5534 5534 5533 5533 5533 5532 5532 5532 5532 5532 5532 5532 5532 5531 5531
5528 5528 5528 5529 5529 5529 5529 5529 5528 5528 5528 5528 5528 5528 5528 5528 5528 5528 5529 5529 5529 5529 5529 5530 5530 5531 5531 5532 5532 5533 5533 5533 5534 5534 5534 5535 5535 5535 5536 5536 5536 5536 5536 5536 5536 5536 5535 5535 5534 5534 5533 5533 5532 5531 5530 5530 5529 5529 5529 5529 5528 5528 5528 5528 5528 5528 5528 5528 5527
5525 5526 5526 5526 5526 5525 5525 5525 5525 5525 5525 5524 5524 5524 5525 5525 5525 5526 5526 5526 5526 5526 5526 5527 5527 5528 5528 5528 5528 5529 5529 5530 5530 5531 5531 5531 5531 5532 5532 5532 5532 5532 5532 5532 5532 5532 5532 5531 5530 5530 5529 5529 5528 5527 5527 5526 5526 5526 5526 5525 5525 5525 5525 5524 5524 5524 5524 5524 5523
5523 5523 5523 5522 5522 5522 5522 5522 5522 5522 5522 5521 5521 5522 5522 5522 5523 5523 5523 5523 5523 5523 5523 5523 5524 5524 5524 5525 5525 5525 5526 5526 5527 5527 5528 5528 5528 5528 5528 5528 5528 5528 5528 5528 5528 5528 5528 5528 5527 5526 5526 5525 5524 5524 5523 5523 5522 5522 5522 5522 5522 5521 5521 5521 5521 5520 5520 5520 5520
5519 5519 5519 5519 5519 5519 5519 5519 5518 5518 5518 5518 5518 5519 5519 5519 5519 5520 5520 5520 5520 5520 5520 5520 5521 5521 5521 5521 5521 5522 5522 5523 5523 5523 5524 5524 5525 5524 5524 5524 5524 5524 5525 5525 5525 5525 5524 5524 5523 5522 5522 5521 5520 5520 5519 5518 5518 5518 5518 5518 5518 5517 5517 5517 5517 5517 5516 5516 5516
5515 5515 5515 5515 5515 5515 5516 5516 5516 5516 5515 5515 5515 5516 5516 5516 5516 5517 5517 5516 5517 5517 5517 5517 5518 5518 5518 5518 5518 5518 5518 5519 5519 5520 5520 5521 5521 5521 5520 5520 5520 5521 5521 5521 5521 5521 5521 5520 5519 5518 5518 5517 5516 5516 5515 5514 5514 5514 5513 5513 5513 5513 5513 5513 5513 5513 5513 5512 5512
5511 5511 5511 5512 5512 5512 5513 5513 5513 5513 5513 5513 5513 5513 5513 5513 5513 5513 5513 5513 5513 5513 5514 5514 5514 5514 5514 5514 5514 5514 5515 5515 5516 5516 5517 5517 5517 5517 5517 5517 5517 5517 5517 5518 5518 5517 5517 5516 5515 5514 5513 5513 5512 5512 5511 5510 5510 5510 5509 5509 5509 5509 5509 5509 5509 5509 5508 5508 5508
5508 5508 5508 5508 5508 5509 5509 5509 5509 5509 5509 5510 5510 5510 5510 5510 5510 5510 5510 5510 5510 5510 5510 5511 5511 5511 5511 5511 5511 5511 5511 5512 5512 5513 5513 5513 5513 5513 5513 5513 5513 5514 5514 5514 5514 5513 5513 5511 5510 5510 5509 5508 5508 5507 5507 5506 5506 5505 5505 5505 5505 5505 5505 5505 5505 5505 5504 5504 5504
5505 5505 5505 5505 5506 5506 5506 5506 5507 5507 5507 5507 5507 5507 5507 5507 5507 5507 5507 5507 5507 5507 5507 5507 5507 5508 5508 5508 5508 5508 5508 5508 5508 5508 5509 5509 5510 5510 5509 5509 5509 5510 5510 5510 5510 5509 5508 5507 5506 5506 5505 5504 5504 5503 5503 5502 5502 5501 5501 5501 5501 5501 5501 5501 5501 5500 5500 5500 5500
5503 5503 5503 5503 5503 5503 5503 5503 5503 5503 5503 5503 5504 5504 5504 5504 5504 5504 5504 5503 5503 5503 5503 5504 5504 5504 5504 5504 5504 5504 5504 5504 5504 5504 5505 5506 5506 5506 5506 5506 5506 5506 5506 5506 5506 5505 5504 5503 5502 5502 5501 5500 5499 5499 5498 5498 5498 5497 5497 5497 5497 5497 5497 5497 5496 5496 5496 5496 5496
5500 5500 5500 5500 5500 5500 5500 5501 5500 5501 5501 5501 5501 5501 5501 5501 5501 5501 5500 5500 5500 5500 5500 5500 5500 5501 5501 5501 5501 5501 5501 5500 5500 5501 5501 5502 5502 5502 5502 5502 5502 5502 5502 5502 5501 5501 5500 5499 5498 5498 5497 5496 5495 5495 5494 5494 5493 5493 5493 5493 5492 5492 5492 5492 5492 5492 5492 5492 5492
5498 5497 5497 5497 5497 5497 5498 5498 5498 5498 5498 5498 5498 5498 5498 5498 5498 5498 5497 5497 5497 5497 5497 5497 5497 5497 5497 5497 5497 5497 5497 5497 5497 5497 5498 5498 5498 5498 5498 5498 5498 5497 5497 5497 5497 5497 5497 5496 5495 5494 5493 5492 5491 5491 5490 5490 5489 5489 5488 5488 5488 5488 5488 5488 5488 5488 5488 5488 5488
5494 5494 5494 5494 5494 5494 5495 5495 5495 5495 5495 5494 5494 5494 5494 5494 5494 5494 5494 5494 5493 5493 5493 5493 5494 5494 5494 5494 5494 5494 5494 5493 5493 5493 5494 5494 5494 5494 5494 5493 5493 5493 5493 5493 5493 5493 5493 5492 5491 5490 5488 5488 5487 5487 5486 5486 5485 5485 5484 5484 5484 5483 5483 5484 5484 5484 5484 5484 5484
5491 5491 5491 5491 5492 5492 5492 5492 5492 5492 5492 5492 5491 5491 5491 5491 5492 5492 5491 5491 5490 5490 5490 5490 5490 5490 5490 5490 5490 5490 5490 5490 5490 5490 5490 5490 5490 5490 5490 5489 5489 5489 5488 5488 5488 5489 5489 5489 5488 5487 5485 5483 5483 5482 5482 5482 5481 5481 5480 5480 5480 5479 5479 5479 5479 5480 5480 5480 5480
5488 5488 5488 5488 5488 5489 5489 5489 5489 5489 5489 5489 5488 5488 5488 5488 5488 5488 5488 5488 5487 5487 5487 5487 5487 5487 5487 5486 5487 5486 5486 5486 5486 5486 5486 5486 5486 5486 5486 5485 5485 5485 5484 5484 5484 5484 5485 5485 5485 5483 5481 5479 5478 5478 5478 5478 5477 5477 5476 5476 5476 5475 5475 5475 5475 5476 5476 5476 5476
5485 5485 5485 5485 5486 5486 5486 5486 5486 5486 5486 5486 5485 5485 5485 5485 5485 5485 5485 5485 5484 5483 5483 5483 5483 5483 5483 5483 5483 5483 5482 5482 5482 5482 5482 5482 5482 5482 5482 5481 5481 5480 5480 5480 5479 5480 5480 5481 5481 5479 5478 5475 5474 5474 5474 5473 5473 5473 5473 5472 5472 5471 5471 5472 5472 5472 5472 5472 5472
5482 5482 5482 5482 5483 5483 5483 5483 5483 5483 5483 5482 5482 5482 5482 5482 5482 5482 5482 5482 5480 5480 5480 5480 5480 5480 5479 5479 5479 5479 5479 5478 5478 5478 5478 5478 5478 5478 5477 5477 5477 5477 5476 5476 5476 5476 5476 5476 5476 5475 5474 5472 5470 5470 5470 5470 5469 5469 5468 5468 5468 5468 5468 5467 5468 5468 5468 5468 5468
5478 5479 5479 5479 5479 5479 5479 5479 5479 5479 5479 5479 5479 5478 5478 5478 5478 5478 5479 5478 5477 5476 5476 5476 5476 5476 5476 5475 5475 5475 5475 5475 5474 5474 5474 5474 5474 5473 5473 5473 5473 5473 5472 5472 5472 5472 5472 5472 5472 5471 5470 5468 5466 5466 5466 5466 5465 5465 5465 5464 5464 5463 5463 5463 5463 5463 5463 5463 5463
5476 5476 5476 5476 5476 5476 5476 5476 5476 5476 5476 5476 5475 5475 5475 5474 5475 5475 5474 5474 5473 5473 5472 5472 5472 5472 5472 5471 5471 5471 5471 5470 5470 5470 5470 5470 5469 5469 5469 5469 5469 5469 5468 5468 5468 5468 5467 5467 5467 5467 5466 5464 5463 5462 5462 5462 5462 5461 5461 5460 5460 5459 5459 5459 5459 5459 5459 5459 5459
5473 5473 5473 5473 5473 5473 5473 5473 5473 5473 5473 5473 5472 5472 5471 5471 5471 5471 5470 5470 5470 5469 5469 5468 5468 5468 5468 5468 5467 5467 5467 5466 5466 5466 5466 5466 5465 5465 5465 5465 5465 5465 5465 5464 5464 5463 5463 5463 5463 5463 5462 5460 5459 5458 5458 5458 5458 5458 5457 5457 5456 5456 5455 5455 5455 5455 5455 5455 5455
5470 5470 5470 5470 5471 5471 5471 5470 5470 5470 5470 5470 5469 5468 5468 5468 5468 5468 5467 5467 5466 5466 5465 5465 5464 5464 5464 5464 5463 5463 5463 5462 5462 5462 5462 5462 5461 5461 5461 5461 5461 5461 5460 5460 5460 5459 5459 5458 5458 5458 5457 5457 5456 5455 5454 5454 5454 5453 5453 5453 5452 5452 5451 5451 5451 5451 5451 5451 5451